Other Public Products
Issued by NWS Grand Forks, ND

Home | Current Version | Previous Version | Text Only | Print | Product List | Glossary On
Versions: 1 2 3 4 5 6 7 8 9 10 11 12 13 14 15 16 17 18 19 20 21 22 23 24 25 26 27 28 29 30 31 32 33 34 35 36 37 38 39 40 41 42 43 44 45 46 47 48 49 50
855
FPUS83 KFGF 221031
OPUFGF
PRAIRIE TO PINES WEATHER ROUNDUP
NATIONAL WEATHER SERVICE EASTERN NORTH DAKOTA/GRAND FORKS ND
500 AM CDT FRI SEP 22 2017

 **SATELLITE DATA USED TO AUGMENT SKY COVER AT AUTOMATED STATIONS**
 *****  WEATHER ACROSS EASTERN NORTH DAKOTA  *****

CITY           SKY/WX    TMP DP  RH WIND       PRES   REMARKS
GRAND FORKS    FAIR      56  53  90 N13       29.78S
GRAND FORKS AF FAIR      55  52  88 N12       29.80R
GRAND CITY NWS NOT AVBL
BUXTON           N/A     57  55  94 N5          N/A
DEVILS LAKE    FAIR      53  48  83 N10       29.86R
FARGO          FAIR      66  66 100 N10       29.71F FOG
WAHPETON ARPT  FAIR      63  59  88 E7        29.73R
$$

 *****  WEATHER ACROSS CENTRAL AND WESTERN NORTH DAKOTA  *****

CITY           SKY/WX    TMP DP  RH WIND       PRES   REMARKS
JAMESTOWN      FAIR      55  50  83 N10       29.77R
BISMARCK       FAIR      56  47  71 NE12      29.80R
MINOT          FAIR      48  40  73 N12       29.90R
MINOT AFB      FAIR      48  40  73 N13       29.88F
GARRISON         N/A     51  40  65 NE15G26   29.87R
WILLISTON      MOCLDY    46  39  76 N15       29.94R
DICKINSON      CLOUDY    51  38  60 N18G25    29.83F
HETTINGER      FAIR      50  36  58 N15G24    29.81S
$$

 *****  OTHER OBSERVATIONS NORTHEAST NORTH DAKOTA  *****

CITY           SKY/WX    TMP DP  RH WIND       PRES   REMARKS
WALHALLA       FAIR     N/A N/A N/A N7G13     29.87R
LANGDON        FAIR      50  50 100 N13       29.86S
CAVALIER       FAIR      54  52  94 N12       29.85R
GRAFTON        FAIR      55  52  88 N14       29.84S
CANDO          FAIR      48  48 100 N14       29.90R
FORT TOTTEN      N/A     55  50  82 NE6       29.95S
ROLLA          FAIR      46  43  87 N13       29.92R
RUGBY          FAIR      46  43  87 N8        29.89R
 ***** THE ABOVE OBSERVATIONS ARE NON NWS ARE NOT QUALITY
        CONTROLLED AND MAY MIS-REPORT RAIN FOR SNOW...
$$

 *****  OTHER OBSERVATIONS SOUTHEAST NORTH DAKOTA *****

CITY           SKY/WX    TMP DP  RH WIND       PRES   REMARKS
COOPERSTOWN    FAIR      57  52  82 N15G22    29.80S
VALLEY CITY    FAIR      57  57 100 N10G20    29.77R
OAKES          NOT AVBL
GWINNER        FOG       64  64 100 CALM      29.71R VSB 1/2
SHEYENNE NWR     N/A     67  67 100 N3        29.95S
BUFFALO          N/A     60  57  91 SE10        N/A
WYNDMERE       NOT AVBL
 ***** THE ABOVE OBSERVATIONS ARE NON NWS ARE NOT QUALITY
       CONTROLLED AND MAY MIS-REPORT RAIN FOR SNOW...
$$

  *****  WEATHER ACROSS NORTHERN MINNESOTA  *****

CITY           SKY/WX    TMP DP  RH WIND       PRES   REMARKS
FLAG ISLAND    FAIR      61  57  88 SE3       29.82R
WARROAD        FAIR      57  54  88 CALM      29.84R
ROSEAU         FAIR      55  50  82 CALM      29.83R
HALLOCK          N/A     57  52  82 N9        29.84R
THF RVR FALLS  CLOUDY    62  59  90 NE7       29.79R
HALSTAD          N/A     62  61  96 NE8         N/A
FOSSTON        FAIR      64  61  88 E5        29.79R
BAUDETTE       CLOUDY    61  60  97 CALM      29.83R
WASKISH        MOCLDY    63  63 100 CALM      29.81R
CROOKSTON      MOCLDY    61  57  88 N9        29.78R
$$
  *****  WEATHER ACROSS CENTRAL AND WEST MINNESOTA  *****

CITY           SKY/WX    TMP DP  RH WIND       PRES   REMARKS
BEMIDJI        FAIR      64  64 100 E5        29.80S
PARK RAPIDS    LGT RAIN  69  67  93 E18G31    29.72F
WADENA         FAIR      64  64 100 SE8       29.72F
DETROIT LAKES  FAIR      68  66  94 SW5       29.78F
MOORHEAD       FAIR      66  64  94 NE3       29.72S FOG
FERGUS FALLS   FAIR      66  61  82 SE9       29.72F
ELBOW LAKE     FAIR      64  61  88 SE8       29.74F
MORRIS MN      FAIR      72  66  83 E10       29.76F
STAPLES        TSTM      64  63  94 NE5       29.78S
WHEATON        FAIR      70  64  83 SE10      29.73R
$$
  *****  WEATHER ELSEWHERE ACROSS MINNESOTA  *****

CITY           SKY/WX    TMP DP  RH WIND       PRES   REMARKS
DULUTH         MOCLDY    59  59 100 SE5       29.87S
INTRNTL FALLS  FAIR      60  58  92 SE6       29.83F
ELY            LGT RAIN  66  64  94 S5        29.86F
CLOQUET        FAIR      61  57  88 CALM      29.86F
BRAINERD       TSTM      67  66  97 W6        29.86R FOG
HIBBING        FAIR      58  58 100 S6        29.82F FOG
ALEXANDRIA     MOCLDY    68  61  78 SE7       29.80F
SAINT CLOUD    MOCLDY    73  71  93 SW5       29.79S
MINNEAPOLIS    FAIR      74  70  87 SE15      29.83S
$$

  *****  WEATHER ACROSS SOUTH DAKOTA  *****

CITY           SKY/WX    TMP DP  RH WIND       PRES   REMARKS
SIOUX FALLS    FAIR      78  73  84 S16G26    29.72S
BROOKINGS      FAIR      73  71  93 SE14      29.73S
WATERTOWN      FAIR      72  71  97 SE10      29.70S
HURON          FAIR      75  71  87 SE13      29.62R
SISSETON         N/A     66  65  96 S5        29.70S
ABERDEEN       FAIR      64  63  96 N7        29.66S
MITCHELL       FAIR      78  71  79 S13       29.64R
PIERRE         FAIR      63  61  93 E8        29.57S
MOBRIDGE       MOCLDY    61  51  70 NE15G24   29.66R
RAPID CITY     NOT AVBL
$$

  *****  SOME WEATHER IN NEARBY STATES *****

CITY           SKY/WX    TMP DP  RH WIND       PRES   REMARKS
GLASGOW MT     CLOUDY    47  34  60 CALM      29.98S
GREAT FALLS MT LGT RAIN  37  31  78 N12       30.05S
CHEYENNE WY    FAIR      47  36  65 N9        29.82R
SCOTTSBLUFF NE FAIR      48  40  73 CALM      29.74R
OMAHA NE       FAIR      78  70  76 S18       29.83R
DES MOINES IA  FAIR      78  70  76 S8        29.90R
DAVENPORT IA   FAIR      73  68  84 S8        30.03R
CHICAGO IL     FAIR      75  67  76 S6        30.05R
EAU CLAIRE WI  FAIR      73  67  81 S12       29.90S
LA CROSSE WI   FAIR      73  69  87 S6        29.92
$$

  *****  SOME NATIONAL WEATHER *****

CITY           SKY/WX    TMP DP  RH WIND       PRES   REMARKS
LA GUARDIA NY  MOCLDY    68  50  52 N12       30.00R
RALEIGH NC     FAIR      63  63 100 CALM      30.06S
ATLANTA GA     FAIR      71  65  81 E7        30.05R
NEW ORLEANS LA FAIR      75  73  93 CALM      29.95S
OKLAHOMA CITY  FAIR      72  68  87 S9        29.91R
ALBUQUERQUE NM MOCLDY    63  37  38 SE9       29.96R
SALT LAKE CITY CLOUDY    44  40  85 SE3       29.83S
LOS ANGELES CA FAIR      60  53  77 E7        29.84S
BOISE ID       CLOUDY    45  38  76 NW8       29.85S
SEATTLE WA     CLOUDY    53  48  83 CALM      30.02S
$$

*** WEATHER ACROSS MANITOBA...SASKATCHEWAN AND ONTARIO ***
                ***ONTARIO***

CITY           SKY/WX    TMP DP  RH WIND       PRES   REMARKS
GERALDTON      TSTM      61  61 100 S2        29.90F VSB 1/4
THUNDER BAY    MOCLDY    52  52 100 SW5       29.90R
SIOUX LOOKOUT  CLEAR     55  54  94 S6        29.85R
TORONTO        CLEAR     63  59  88 NW3       30.14R
BIG TROUT LK   CLOUDY    52  50  93 CALM      29.78S
PICKLE LAKE    NOT AVBL
DRYDEN         CLEAR     59  55  88 S10       29.84R
KENORA         PTCLDY    59  57  94 S8        29.85R
$$
                *** MANITOBA***

CITY           SKY/WX    TMP DP  RH WIND       PRES   REMARKS
BRANDON        MOCLDY    48  41  76 N13       29.91R
DAUPHIN        CLEAR     41  37  87 W9        29.94R
ISLAND LAKE    PTCLDY    52  50  93 W5        29.80R
PILOT MOUND      N/A     48  43  81 N10         N/A
THE PAS        PTCLDY    45  39  81 NW12      29.92R
THOMPSON       FOG       39  39 100 W8        29.82R VSB 1
WINNIPEG       PTCLDY    52  48  87 NW10      29.86R
LYNN LAKE      CLOUDY    39  37  93 N10G17    29.90R
CHURCHILL      LGT RAIN  45  45 100 NE10      29.77R FOG
GILLAM         CLEAR     43  43 100 W6        29.75R
$$
                ***SASKATCHEWAN***

CITY           SKY/WX    TMP DP  RH WIND       PRES   REMARKS
ESTEVAN        LGT RAIN  45  41  87 N8        29.94R
KINDERSLEY     CLOUDY    39  37  93 NW5       30.04S
LLOYDMINSTER   CLOUDY    39  39 100 N7        30.05R
PRINCE ALBERT  DRIZZLE   39  37  93 NW8       30.03R
REGINA         CLOUDY    37  34  87 NW3       30.00R
YORKTON        CLOUDY    41  37  87 W8        29.96S



USA.gov is the U.S. government's official web portal to all federal, state and local government web resources and services.